START_TIME,STEP,MOV.,M29,t_acc.,H22,t_acc.,H26,t_acc.,H30,t_acc.
1981-08-28 21:00:32.580 ,2,0,0.,24.0,0.,24.0,0.,24.0,0.,24.0
1981-08-28 21:00:56.580 ,1,1,0.,24.0,0.,24.0,0.,24.0,0.,24.0
1981-08-28 21:01:20.580 ,1,0,0.,24.0,0.,24.0,0.,24.0,0.,24.0
1981-08-28 21:01:44.580 ,0,1,0.,24.0,0.,24.0,0.,24.0,0.,24.0
1981-08-28 21:02:08.580 ,0,0,0.,24.0,0.,24.0,0.,24.0,0.,24.0
1981-08-28 21:02:32.580 ,0,1,0.,24.0,0.,24.0,0.,24.0,0.,24.0
1981-08-28 21:02:56.580 ,0,0,0.,24.0,0.,24.0,0.,24.0,0.,24.0
1981-08-28 21:03:20.580 ,1,1,0.,24.0,0.,24.0,0.,24.0,0.,24.0
1981-08-28 21:03:44.580 ,1,0,0.,24.0,0.,24.0,0.,24.0,0.,24.0
1981-08-28 21:04:08.580 ,2,1,0.,24.0,0.,24.0,0.,24.0,0.,24.0
1981-08-28 21:04:32.580 ,2,0,0.,24.0,0.,24.0,0.,24.0,0.,24.0
1981-08-28 21:04:56.580 ,3,1,0.,24.0,0.,24.0,0.,24.0,0.,24.0
1981-08-28 21:05:20.580 ,3,0,0.,24.0,0.,24.0,0.,24.0,0.,24.0
1981-08-28 21:05:44.580 ,4,1,0.,24.0,0.,24.0,0.,24.0,0.,24.0
1981-08-28 21:06:08.580 ,4,0,0.,24.0,0.,24.0,0.,24.0,0.,24.0
1981-08-28 21:06:32.580 ,5,1,1.,24.0,0.,24.0,0.,24.0,0.,24.0
1981-08-28 21:06:56.580 ,5,0,0.,24.0,0.,24.0,0.,24.0,1.,24.0
1981-08-28 21:07:20.580 ,6,1,0.,24.0,0.,24.0,0.,24.0,0.,24.0
1981-08-28 21:07:44.580 ,6,0,0.,24.0,0.,24.0,0.,24.0,0.,24.0
1981-08-28 21:08:08.580 ,7,1,0.,24.0,0.,24.0,0.,24.0,0.,24.0
1981-08-28 21:08:32.580 ,7,0,1.,24.0,0.,24.0,0.,24.0,0.,24.0
1981-08-28 21:08:56.580 ,7,1,0.,24.0,0.,24.0,0.,24.0,0.,24.0
1981-08-28 21:09:20.580 ,6,1,0.,24.0,0.,24.0,0.,24.0,0.,24.0
1981-08-28 21:09:44.580 ,5,1,0.,24.0,0.,24.0,0.,24.0,0.,24.0
1981-08-28 21:10:08.580 ,4,1,0.,24.0,0.,24.0,0.,24.0,0.,24.0
1981-08-28 21:10:32.580 ,3,1,0.,24.0,0.,24.0,0.,24.0,0.,24.0
1981-08-28 21:10:56.580 ,2,1,0.,24.0,0.,24.0,0.,24.0,0.,24.0
1981-08-28 21:11:20.580 ,1,1,0.,24.0,0.,24.0,0.,24.0,0.,24.0
1981-08-28 21:11:44.580 ,0,1,0.,24.0,0.,24.0,0.,24.0,0.,24.0
1981-08-28 21:12:08.580 ,0,1,0.,24.0,0.,24.0,0.,24.0,0.,24.0
1981-08-28 21:12:32.580 ,1,1,0.,24.0,0.,24.0,0.,24.0,0.,24.0
1981-08-28 21:12:56.580 ,2,1,0.,24.0,0.,24.0,0.,24.0,0.,24.0
1981-08-28 21:13:20.580 ,3,1,0.,24.0,0.,24.0,0.,24.0,0.,24.0
1981-08-28 21:13:44.580 ,4,1,0.,24.0,0.,24.0,0.,24.0,0.,24.0
1981-08-28 21:14:08.580 ,5,1,0.,24.0,0.,24.0,0.,24.0,0.,24.0
1981-08-28 21:14:32.580 ,6,1,0.,24.0,0.,24.0,0.,24.0,0.,24.0
1981-08-28 21:14:56.580 ,7,1,0.,24.0,0.,24.0,0.,24.0,0.,24.0
1981-08-28 21:15:20.580 ,7,1,0.,24.0,0.,24.0,0.,24.0,0.,24.0
1981-08-28 21:15:44.580 ,7,0,0.,24.0,0.,24.0,0.,24.0,0.,24.0
1981-08-28 21:16:08.580 ,6,1,0.,24.0,0.,24.0,0.,24.0,0.,24.0
1981-08-28 21:16:32.580 ,6,0,0.,24.0,0.,24.0,0.,24.0,0.,24.0
1981-08-28 21:16:56.580 ,5,1,0.,24.0,0.,24.0,0.,24.0,0.,24.0
1981-08-28 21:17:20.580 ,5,0,0.,24.0,0.,24.0,0.,24.0,0.,24.0
1981-08-28 21:17:44.580 ,4,1,0.,24.0,0.,24.0,0.,24.0,0.,24.0
1981-08-28 21:18:08.580 ,4,0,0.,24.0,0.,24.0,0.,24.0,0.,24.0
1981-08-28 21:18:32.580 ,3,1,0.,24.0,0.,24.0,0.,24.0,0.,24.0
1981-08-28 21:18:56.580 ,3,0,0.,24.0,0.,24.0,0.,24.0,0.,24.0
1981-08-28 21:19:20.580 ,2,1,0.,24.0,0.,24.0,0.,24.0,0.,24.0
1981-08-28 21:19:44.580 ,2,0,0.,24.0,0.,24.0,0.,24.0,0.,24.0
1981-08-28 21:20:08.580 ,1,1,0.,24.0,0.,24.0,0.,24.0,0.,24.0
1981-08-28 21:20:32.580 ,1,0,0.,24.0,0.,24.0,0.,24.0,0.,24.0
1981-08-28 21:20:56.580 ,0,1,0.,24.0,0.,24.0,0.,24.0,0.,24.0
1981-08-28 21:21:20.580 ,0,0,0.,24.0,0.,24.0,0.,24.0,0.,24.0
1981-08-28 21:21:44.580 ,0,1,0.,24.0,0.,24.0,0.,24.0,0.,24.0
1981-08-28 21:22:08.580 ,0,0,0.,24.0,0.,24.0,0.,24.0,0.,24.0
1981-08-28 21:22:32.580 ,1,1,0.,24.0,0.,24.0,0.,24.0,0.,24.0
1981-08-28 21:22:56.580 ,1,0,0.,24.0,0.,24.0,0.,24.0,0.,24.0
1981-08-28 21:23:20.580 ,2,1,0.,24.0,0.,24.0,0.,24.0,0.,24.0
1981-08-28 21:23:44.580 ,2,0,0.,24.0,0.,24.0,0.,24.0,0.,24.0
1981-08-28 21:24:08.580 ,3,1,0.,24.0,0.,24.0,0.,24.0,0.,24.0
1981-08-28 21:24:32.580 ,3,0,0.,24.0,0.,24.0,0.,24.0,0.,24.0
1981-08-28 21:24:56.580 ,4,1,0.,24.0,0.,24.0,0.,24.0,0.,24.0
1981-08-28 21:25:20.580 ,4,0,0.,24.0,0.,24.0,0.,24.0,0.,24.0
1981-08-28 21:25:44.580 ,5,1,0.,24.0,0.,24.0,0.,24.0,0.,24.0
1981-08-28 21:26:08.580 ,5,0,0.,24.0,0.,24.0,0.,24.0,0.,24.0
1981-08-28 21:26:32.570 ,6,1,0.,24.0,0.,24.0,0.,24.0,0.,24.0
1981-08-28 21:26:56.570 ,6,0,0.,24.0,0.,24.0,0.,24.0,0.,24.0
1981-08-28 21:27:20.570 ,7,1,0.,24.0,0.,24.0,0.,24.0,0.,24.0
1981-08-28 21:27:44.570 ,7,0,0.,24.0,0.,24.0,0.,24.0,0.,24.0
1981-08-28 21:28:08.570 ,7,1,0.,24.0,0.,24.0,0.,24.0,0.,24.0
1981-08-28 21:28:32.570 ,6,1,0.,24.0,0.,24.0,0.,24.0,0.,24.0
1981-08-28 21:28:56.570 ,5,1,0.,24.0,0.,24.0,0.,24.0,0.,24.0
1981-08-28 21:29:20.570 ,4,1,0.,24.0,0.,24.0,0.,24.0,0.,24.0
1981-08-28 21:29:44.570 ,3,1,0.,24.0,0.,24.0,0.,24.0,0.,24.0
1981-08-28 21:30:08.570 ,2,1,0.,24.0,0.,24.0,0.,24.0,0.,24.0
1981-08-28 21:30:32.570 ,1,1,0.,24.0,0.,24.0,0.,24.0,0.,24.0
1981-08-28 21:30:56.570 ,0,1,0.,24.0,0.,24.0,0.,24.0,0.,24.0
1981-08-28 21:31:20.570 ,0,1,0.,24.0,0.,24.0,0.,24.0,0.,24.0
1981-08-28 21:31:44.570 ,1,1,0.,24.0,0.,24.0,0.,24.0,0.,24.0
1981-08-28 21:32:08.570 ,2,1,0.,24.0,0.,24.0,0.,24.0,0.,24.0
1981-08-28 21:32:32.570 ,3,1,0.,24.0,0.,24.0,0.,24.0,0.,24.0
1981-08-28 21:32:56.570 ,4,1,0.,24.0,0.,24.0,0.,24.0,0.,24.0
1981-08-28 21:33:20.570 ,5,1,0.,24.0,0.,24.0,0.,24.0,0.,24.0
1981-08-28 21:33:44.570 ,6,1,0.,24.0,0.,24.0,0.,24.0,0.,24.0
1981-08-28 21:34:08.570 ,7,1,0.,24.0,0.,24.0,0.,24.0,0.,24.0
1981-08-28 21:34:32.570 ,7,1,0.,24.0,0.,24.0,0.,24.0,0.,24.0
1981-08-28 21:34:56.570 ,7,0,0.,24.0,0.,24.0,0.,24.0,0.,24.0
1981-08-28 21:35:20.570 ,6,1,0.,24.0,0.,24.0,0.,24.0,0.,24.0
1981-08-28 21:35:44.570 ,6,0,0.,24.0,0.,24.0,0.,24.0,0.,24.0
1981-08-28 21:36:08.570 ,5,1,0.,24.0,0.,24.0,0.,24.0,0.,24.0
1981-08-28 21:36:32.570 ,5,0,0.,24.0,0.,24.0,0.,24.0,0.,24.0
1981-08-28 21:36:56.570 ,4,1,0.,24.0,0.,24.0,0.,24.0,0.,24.0
1981-08-28 21:37:20.570 ,4,0,0.,24.0,0.,24.0,0.,24.0,0.,24.0
1981-08-28 21:37:44.570 ,3,1,0.,24.0,0.,24.0,0.,24.0,0.,24.0
1981-08-28 21:38:08.570 ,3,0,0.,24.0,0.,24.0,0.,24.0,0.,24.0
1981-08-28 21:38:32.570 ,2,1,0.,24.0,0.,24.0,0.,24.0,0.,24.0
1981-08-28 21:38:56.570 ,2,0,0.,24.0,0.,24.0,0.,24.0,0.,24.0
1981-08-28 21:39:20.570 ,1,1,1.,24.0,0.,24.0,0.,24.0,0.,24.0
1981-08-28 21:39:44.570 ,1,0,0.,24.0,0.,24.0,0.,24.0,0.,24.0
1981-08-28 21:40:08.570 ,0,1,0.,24.0,0.,24.0,0.,24.0,0.,24.0
1981-08-28 21:40:32.570 ,0,0,0.,24.0,0.,24.0,0.,24.0,0.,24.0
1981-08-28 21:40:56.570 ,0,1,0.,24.0,0.,24.0,0.,24.0,0.,24.0
1981-08-28 21:41:20.570 ,0,0,0.,24.0,0.,24.0,0.,24.0,0.,24.0
1981-08-28 21:41:44.570 ,1,1,0.,24.0,0.,24.0,0.,24.0,0.,24.0
1981-08-28 21:42:08.570 ,1,0,0.,24.0,0.,24.0,0.,24.0,0.,24.0
1981-08-28 21:42:32.570 ,2,1,0.,24.0,0.,24.0,0.,24.0,0.,24.0
1981-08-28 21:42:56.570 ,2,0,0.,24.0,0.,24.0,0.,24.0,0.,24.0
1981-08-28 21:43:20.570 ,3,1,0.,24.0,0.,24.0,0.,24.0,0.,24.0
1981-08-28 21:43:44.570 ,3,0,0.,24.0,0.,24.0,0.,24.0,0.,24.0
1981-08-28 21:44:08.570 ,4,1,0.,24.0,0.,24.0,0.,24.0,0.,24.0
1981-08-28 21:44:32.570 ,4,0,0.,24.0,0.,24.0,0.,24.0,0.,24.0
1981-08-28 21:44:56.570 ,5,1,0.,24.0,0.,24.0,0.,24.0,0.,24.0
1981-08-28 21:45:20.570 ,5,0,0.,24.0,0.,24.0,0.,24.0,0.,24.0
1981-08-28 21:45:44.570 ,6,1,0.,24.0,0.,24.0,0.,24.0,0.,24.0
1981-08-28 21:46:08.570 ,6,0,0.,24.0,0.,24.0,0.,24.0,0.,24.0
1981-08-28 21:46:32.570 ,7,1,0.,24.0,0.,24.0,0.,24.0,0.,24.0
1981-08-28 21:46:56.570 ,7,0,0.,24.0,0.,24.0,0.,24.0,0.,24.0
1981-08-28 21:47:20.570 ,7,1,0.,24.0,0.,24.0,0.,24.0,0.,24.0
1981-08-28 21:47:44.570 ,6,1,0.,24.0,0.,24.0,0.,24.0,0.,24.0
1981-08-28 21:48:08.570 ,5,1,0.,24.0,0.,24.0,0.,24.0,0.,24.0
1981-08-28 21:48:32.570 ,4,1,0.,24.0,0.,24.0,0.,24.0,0.,24.0
1981-08-28 21:49:44.570 ,0,0,0.,24.0,0.,24.0,0.,24.0,0.,24.0
1981-08-28 21:50:08.570 ,0,1,0.,24.0,0.,24.0,0.,24.0,0.,24.0
1981-08-28 21:50:32.570 ,0,1,0.,24.0,0.,24.0,0.,24.0,0.,24.0
1981-08-28 21:50:56.570 ,1,1,0.,24.0,0.,24.0,0.,24.0,0.,24.0
1981-08-28 21:51:20.570 ,2,1,0.,24.0,0.,24.0,0.,24.0,0.,24.0
1981-08-28 21:51:44.570 ,3,1,0.,24.0,0.,24.0,0.,24.0,0.,24.0
1981-08-28 21:52:08.570 ,4,1,0.,24.0,0.,24.0,0.,24.0,0.,24.0
1981-08-28 21:52:32.570 ,5,1,0.,24.0,0.,24.0,0.,24.0,0.,24.0
1981-08-28 21:52:56.570 ,6,1,0.,24.0,0.,24.0,0.,24.0,0.,24.0
1981-08-28 21:53:20.570 ,7,1,1.,24.0,0.,24.0,0.,24.0,0.,24.0
1981-08-28 21:53:44.570 ,7,1,0.,24.0,0.,24.0,0.,24.0,0.,24.0
1981-08-28 21:54:08.570 ,7,0,0.,24.0,0.,24.0,0.,24.0,0.,24.0
1981-08-28 21:54:32.570 ,6,1,0.,24.0,0.,24.0,0.,24.0,0.,24.0
1981-08-28 21:54:56.570 ,6,0,0.,24.0,0.,24.0,0.,24.0,0.,24.0
1981-08-28 21:55:20.570 ,5,1,0.,24.0,0.,24.0,0.,24.0,0.,24.0
1981-08-28 21:55:44.570 ,5,0,0.,24.0,0.,24.0,0.,24.0,0.,24.0
1981-08-28 21:56:08.570 ,4,1,0.,24.0,0.,24.0,0.,24.0,0.,24.0
1981-08-28 21:56:32.570 ,4,0,0.,24.0,0.,24.0,0.,24.0,0.,24.0
1981-08-28 21:56:56.570 ,3,1,0.,24.0,0.,24.0,0.,24.0,0.,24.0
1981-08-28 21:57:20.570 ,3,0,0.,24.0,0.,24.0,0.,24.0,0.,24.0
1981-08-28 21:57:44.570 ,2,1,0.,24.0,0.,24.0,0.,24.0,0.,24.0
1981-08-28 21:58:08.570 ,2,0,0.,24.0,0.,24.0,0.,24.0,0.,24.0
1981-08-28 21:58:32.570 ,1,1,0.,24.0,0.,24.0,0.,24.0,0.,24.0
1981-08-28 21:58:56.570 ,1,0,0.,24.0,0.,24.0,0.,24.0,0.,24.0
1981-08-28 21:59:20.570 ,0,1,0.,24.0,0.,24.0,0.,24.0,0.,24.0
1981-08-28 21:59:44.570 ,0,0,0.,24.0,0.,24.0,0.,24.0,0.,24.0
1981-08-28 22:00:08.570 ,0,1,0.,24.0,0.,24.0,0.,24.0,0.,24.0
1981-08-28 22:00:32.570 ,0,0,0.,24.0,0.,24.0,0.,24.0,0.,24.0
1981-08-28 22:00:56.570 ,1,1,0.,24.0,0.,24.0,0.,24.0,0.,24.0
1981-08-28 22:01:20.570 ,1,0,0.,24.0,0.,24.0,0.,24.0,0.,24.0
1981-08-28 22:01:44.570 ,2,1,0.,24.0,0.,24.0,0.,24.0,0.,24.0
1981-08-28 22:02:08.570 ,2,0,0.,24.0,0.,24.0,0.,24.0,0.,24.0
1981-08-28 22:02:32.570 ,3,1,0.,24.0,0.,24.0,0.,24.0,0.,24.0
1981-08-28 22:02:56.570 ,3,0,0.,24.0,0.,24.0,0.,24.0,0.,24.0
1981-08-28 22:03:20.570 ,4,1,0.,24.0,0.,24.0,0.,24.0,0.,24.0
1981-08-28 22:03:44.570 ,4,0,0.,24.0,0.,24.0,0.,24.0,0.,24.0
1981-08-28 22:04:08.570 ,5,1,0.,24.0,0.,24.0,0.,24.0,0.,24.0
1981-08-28 22:04:32.570 ,5,0,0.,24.0,0.,24.0,0.,24.0,0.,24.0
1981-08-28 22:04:56.570 ,6,1,0.,24.0,0.,24.0,0.,24.0,0.,24.0
1981-08-28 22:05:20.570 ,6,0,0.,24.0,0.,24.0,0.,24.0,0.,24.0
1981-08-28 22:05:44.570 ,7,1,0.,24.0,0.,24.0,0.,24.0,0.,24.0
1981-08-28 22:06:08.570 ,7,0,0.,24.0,0.,24.0,0.,24.0,0.,24.0
1981-08-28 22:06:32.570 ,7,1,0.,24.0,0.,24.0,0.,24.0,0.,24.0
1981-08-28 22:06:56.570 ,6,1,0.,24.0,0.,24.0,0.,24.0,0.,24.0
1981-08-28 22:07:20.570 ,5,1,0.,24.0,0.,24.0,0.,24.0,0.,24.0
1981-08-28 22:07:44.570 ,4,1,0.,24.0,0.,24.0,0.,24.0,0.,24.0
1981-08-28 22:08:08.570 ,3,1,0.,24.0,0.,24.0,0.,24.0,0.,24.0
1981-08-28 22:08:32.570 ,2,1,0.,24.0,0.,24.0,0.,24.0,0.,24.0
1981-08-28 22:09:44.570 ,0,0,0.,24.0,0.,24.0,0.,24.0,0.,24.0
1981-08-28 22:10:08.570 ,1,1,0.,24.0,0.,24.0,0.,24.0,0.,24.0
1981-08-28 22:10:32.570 ,2,1,0.,24.0,0.,24.0,0.,24.0,0.,24.0
1981-08-28 22:10:56.570 ,3,1,0.,24.0,0.,24.0,0.,24.0,0.,24.0
1981-08-28 22:11:20.570 ,4,1,0.,24.0,0.,24.0,0.,24.0,0.,24.0
1981-08-28 22:11:44.570 ,5,1,0.,24.0,0.,24.0,0.,24.0,0.,24.0
1981-08-28 22:12:08.570 ,6,1,0.,24.0,0.,24.0,0.,24.0,0.,24.0
1981-08-28 22:12:32.570 ,7,1,0.,24.0,0.,24.0,0.,24.0,0.,24.0
1981-08-28 22:12:56.570 ,7,1,0.,24.0,0.,24.0,0.,24.0,0.,24.0
1981-08-28 22:13:20.570 ,7,0,0.,24.0,0.,24.0,0.,24.0,0.,24.0
1981-08-28 22:13:44.570 ,6,1,0.,24.0,0.,24.0,0.,24.0,0.,24.0
1981-08-28 22:14:08.570 ,6,0,0.,24.0,0.,24.0,0.,24.0,0.,24.0
1981-08-28 22:14:32.570 ,5,1,0.,24.0,0.,24.0,0.,24.0,0.,24.0
1981-08-28 22:14:56.570 ,5,0,0.,24.0,0.,24.0,0.,24.0,0.,24.0
1981-08-28 22:15:20.570 ,4,1,0.,24.0,0.,24.0,0.,24.0,0.,24.0
1981-08-28 22:15:44.570 ,4,0,0.,24.0,0.,24.0,0.,24.0,0.,24.0
1981-08-28 22:16:08.570 ,3,1,0.,24.0,0.,24.0,0.,24.0,0.,24.0
1981-08-28 22:16:32.570 ,3,0,0.,24.0,0.,24.0,0.,24.0,0.,24.0
1981-08-28 22:16:56.570 ,2,1,0.,24.0,0.,24.0,0.,24.0,0.,24.0
1981-08-28 22:17:20.570 ,2,0,0.,24.0,0.,24.0,0.,24.0,0.,24.0
1981-08-28 22:17:44.570 ,1,1,0.,24.0,0.,24.0,0.,24.0,0.,24.0
1981-08-28 22:18:08.570 ,1,0,0.,24.0,0.,24.0,0.,24.0,0.,24.0
1981-08-28 22:18:32.570 ,0,1,0.,24.0,0.,24.0,0.,24.0,0.,24.0
1981-08-28 22:18:56.570 ,0,0,0.,24.0,0.,24.0,0.,24.0,0.,24.0
1981-08-28 22:19:20.570 ,0,1,0.,24.0,0.,24.0,0.,24.0,0.,24.0
1981-08-28 22:19:44.570 ,0,0,0.,24.0,0.,24.0,0.,24.0,0.,24.0
1981-08-28 22:20:08.570 ,1,1,0.,24.0,0.,24.0,0.,24.0,0.,24.0
1981-08-28 22:20:32.570 ,1,0,0.,24.0,0.,24.0,0.,24.0,0.,24.0
1981-08-28 22:20:56.570 ,2,1,0.,24.0,0.,24.0,0.,24.0,0.,24.0
1981-08-28 22:21:20.570 ,2,0,0.,24.0,0.,24.0,0.,24.0,0.,24.0
1981-08-28 22:21:44.570 ,3,1,0.,24.0,0.,24.0,0.,24.0,0.,24.0
1981-08-28 22:22:08.570 ,3,0,0.,24.0,0.,24.0,0.,24.0,0.,24.0
1981-08-28 22:22:32.570 ,4,1,0.,24.0,0.,24.0,0.,24.0,0.,24.0
1981-08-28 22:22:56.570 ,4,0,0.,24.0,0.,24.0,0.,24.0,0.,24.0
1981-08-28 22:23:20.570 ,5,1,0.,24.0,0.,24.0,0.,24.0,0.,24.0
1981-08-28 22:23:44.570 ,5,0,0.,24.0,0.,24.0,0.,24.0,0.,24.0
1981-08-28 22:24:08.570 ,6,1,0.,24.0,0.,24.0,0.,24.0,0.,24.0
1981-08-28 22:24:32.570 ,6,0,0.,24.0,0.,24.0,0.,24.0,0.,24.0
1981-08-28 22:24:56.570 ,7,1,0.,24.0,0.,24.0,0.,24.0,0.,24.0
1981-08-28 22:25:20.570 ,7,0,0.,24.0,0.,24.0,0.,24.0,0.,24.0
1981-08-28 22:26:32.570 ,0,0,0.,24.0,0.,24.0,0.,24.0,0.,24.0
1981-08-28 22:26:56.570 ,4,1,0.,24.0,0.,24.0,0.,24.0,0.,24.0
1981-08-28 22:27:20.570 ,3,1,0.,24.0,0.,24.0,0.,24.0,0.,24.0
1981-08-28 22:27:44.570 ,2,1,0.,24.0,0.,24.0,0.,24.0,0.,24.0
1981-08-28 22:28:08.570 ,1,1,0.,24.0,0.,24.0,0.,24.0,0.,24.0
1981-08-28 22:28:32.570 ,0,1,0.,24.0,0.,24.0,0.,24.0,0.,24.0
1981-08-28 22:28:56.570 ,0,1,0.,24.0,0.,24.0,0.,24.0,0.,24.0
1981-08-28 22:29:20.570 ,1,1,0.,24.0,0.,24.0,0.,24.0,0.,24.0
1981-08-28 22:29:44.570 ,2,1,0.,24.0,0.,24.0,0.,24.0,0.,24.0
1981-08-28 22:30:08.570 ,3,1,0.,24.0,0.,24.0,0.,24.0,0.,24.0
1981-08-28 22:30:32.570 ,4,1,0.,24.0,0.,24.0,0.,24.0,0.,24.0
1981-08-28 22:30:56.570 ,5,1,0.,24.0,0.,24.0,0.,24.0,0.,24.0
1981-08-28 22:31:20.570 ,6,1,0.,24.0,0.,24.0,0.,24.0,0.,24.0
1981-08-28 22:31:44.570 ,7,1,0.,24.0,0.,24.0,0.,24.0,0.,24.0
1981-08-28 22:32:08.570 ,7,1,0.,24.0,0.,24.0,0.,24.0,0.,24.0
1981-08-28 22:32:32.570 ,7,0,0.,24.0,0.,24.0,0.,24.0,0.,24.0
1981-08-28 22:32:56.570 ,6,1,0.,24.0,0.,24.0,0.,24.0,0.,24.0
1981-08-28 22:33:20.570 ,6,0,0.,24.0,0.,24.0,0.,24.0,0.,24.0
1981-08-28 22:33:44.570 ,5,1,0.,24.0,0.,24.0,0.,24.0,0.,24.0
1981-08-28 22:34:08.570 ,5,0,0.,24.0,0.,24.0,0.,24.0,0.,24.0
1981-08-28 22:34:32.570 ,4,1,0.,24.0,0.,24.0,0.,24.0,0.,24.0
1981-08-28 22:34:56.570 ,4,0,0.,24.0,0.,24.0,0.,24.0,0.,24.0
1981-08-28 22:35:20.570 ,3,1,0.,24.0,0.,24.0,0.,24.0,0.,24.0
1981-08-28 22:35:44.570 ,3,0,0.,24.0,0.,24.0,0.,24.0,0.,24.0
1981-08-28 22:36:08.570 ,2,1,0.,24.0,0.,24.0,0.,24.0,0.,24.0
1981-08-28 22:36:32.570 ,2,0,1.,24.0,0.,24.0,0.,24.0,0.,24.0
1981-08-28 22:36:56.570 ,1,1,0.,24.0,0.,24.0,0.,24.0,0.,24.0
1981-08-28 22:37:20.570 ,1,0,0.,24.0,0.,24.0,0.,24.0,0.,24.0
1981-08-28 22:37:44.570 ,0,1,0.,24.0,0.,24.0,0.,24.0,0.,24.0
1981-08-28 22:38:08.570 ,0,0,2.,24.0,0.,24.0,0.,24.0,0.,24.0
1981-08-28 22:38:32.570 ,0,1,0.,24.0,0.,24.0,0.,24.0,0.,24.0
1981-08-28 22:38:56.570 ,0,0,0.,24.0,0.,24.0,0.,24.0,0.,24.0
1981-08-28 22:39:20.570 ,1,1,0.,24.0,0.,24.0,0.,24.0,0.,24.0
1981-08-28 22:39:44.570 ,1,0,0.,24.0,0.,24.0,0.,24.0,0.,24.0
1981-08-28 22:40:08.570 ,2,1,0.,24.0,0.,24.0,0.,24.0,0.,24.0
1981-08-28 22:40:32.570 ,2,0,0.,24.0,0.,24.0,0.,24.0,0.,24.0
1981-08-28 22:40:56.570 ,3,1,0.,24.0,0.,24.0,0.,24.0,0.,24.0
1981-08-28 22:41:20.570 ,3,0,0.,24.0,0.,24.0,0.,24.0,0.,24.0
1981-08-28 22:41:44.570 ,4,1,0.,24.0,0.,24.0,0.,24.0,0.,24.0
1981-08-28 22:42:08.570 ,4,0,0.,24.0,0.,24.0,0.,24.0,0.,24.0
1981-08-28 22:42:32.570 ,5,1,0.,24.0,0.,24.0,0.,24.0,0.,24.0
1981-08-28 22:42:56.570 ,5,0,0.,24.0,0.,24.0,0.,24.0,0.,24.0
1981-08-28 22:43:20.570 ,6,1,0.,24.0,0.,24.0,0.,24.0,0.,24.0
1981-08-28 22:43:44.570 ,6,0,0.,24.0,0.,24.0,0.,24.0,0.,24.0
1981-08-28 22:44:08.570 ,7,1,0.,24.0,0.,24.0,0.,24.0,0.,24.0
1981-08-28 22:44:32.570 ,7,0,0.,24.0,0.,24.0,0.,24.0,0.,24.0
1981-08-28 22:44:56.570 ,7,1,0.,24.0,0.,24.0,0.,24.0,0.,24.0
1981-08-28 22:45:20.570 ,6,1,0.,24.0,0.,24.0,0.,24.0,0.,24.0
1981-08-28 22:45:44.570 ,5,1,0.,24.0,0.,24.0,0.,24.0,0.,24.0
1981-08-28 22:46:08.570 ,4,1,0.,24.0,0.,24.0,0.,24.0,0.,24.0
1981-08-28 22:46:32.570 ,3,1,0.,24.0,0.,24.0,0.,24.0,0.,24.0
1981-08-28 22:46:56.570 ,2,1,0.,24.0,0.,24.0,0.,24.0,0.,24.0
1981-08-28 22:47:20.570 ,1,1,0.,24.0,0.,24.0,0.,24.0,0.,24.0
1981-08-28 22:47:44.570 ,0,1,0.,24.0,0.,24.0,0.,24.0,0.,24.0
1981-08-28 22:48:08.570 ,0,1,0.,24.0,0.,24.0,0.,24.0,0.,24.0
1981-08-28 22:48:32.570 ,1,1,0.,24.0,0.,24.0,0.,24.0,0.,24.0
1981-08-28 22:48:56.570 ,2,1,0.,24.0,0.,24.0,0.,24.0,0.,24.0
1981-08-28 22:49:20.570 ,3,1,0.,24.0,0.,24.0,0.,24.0,0.,24.0
1981-08-28 22:49:44.570 ,4,1,0.,24.0,0.,24.0,0.,24.0,0.,24.0
1981-08-28 22:50:08.570 ,5,1,0.,24.0,0.,24.0,0.,24.0,0.,24.0
1981-08-28 22:50:32.570 ,6,1,0.,24.0,0.,24.0,0.,24.0,0.,24.0
1981-08-28 22:50:56.570 ,7,1,0.,24.0,0.,24.0,0.,24.0,0.,24.0
1981-08-28 22:51:20.570 ,7,1,0.,24.0,0.,24.0,0.,24.0,0.,24.0
1981-08-28 22:51:44.570 ,7,0,0.,24.0,0.,24.0,0.,24.0,0.,24.0
1981-08-28 22:52:08.570 ,6,1,1.,24.0,0.,24.0,0.,24.0,0.,24.0
1981-08-28 22:52:32.570 ,6,0,1.,24.0,0.,24.0,0.,24.0,0.,24.0
1981-08-28 22:52:56.570 ,5,1,0.,24.0,0.,24.0,0.,24.0,0.,24.0
1981-08-28 22:53:20.570 ,5,0,0.,24.0,0.,24.0,0.,24.0,0.,24.0
1981-08-28 22:53:44.570 ,4,1,0.,24.0,0.,24.0,0.,24.0,0.,24.0
1981-08-28 22:54:08.570 ,4,0,0.,24.0,0.,24.0,0.,24.0,0.,24.0
1981-08-28 22:54:32.570 ,3,1,0.,24.0,0.,24.0,0.,24.0,0.,24.0
1981-08-28 22:54:56.570 ,3,0,0.,24.0,0.,24.0,0.,24.0,0.,24.0
1981-08-28 22:55:20.570 ,2,1,0.,24.0,0.,24.0,0.,24.0,0.,24.0
1981-08-28 22:55:44.570 ,2,0,0.,24.0,0.,24.0,0.,24.0,0.,24.0
1981-08-28 22:56:08.570 ,1,1,0.,24.0,0.,24.0,0.,24.0,0.,24.0
1981-08-28 22:56:32.570 ,1,0,0.,24.0,0.,24.0,0.,24.0,0.,24.0
1981-08-28 22:56:56.570 ,0,1,0.,24.0,0.,24.0,0.,24.0,0.,24.0
1981-08-28 22:57:20.570 ,0,0,0.,24.0,0.,24.0,0.,24.0,0.,24.0
1981-08-28 22:57:44.570 ,0,1,0.,24.0,0.,24.0,0.,24.0,0.,24.0
1981-08-28 22:58:08.570 ,0,0,0.,24.0,0.,24.0,0.,24.0,0.,24.0
1981-08-28 22:58:32.570 ,1,1,0.,24.0,0.,24.0,0.,24.0,0.,24.0
1981-08-28 22:58:56.570 ,1,0,0.,24.0,0.,24.0,0.,24.0,0.,24.0
1981-08-28 22:59:20.570 ,2,1,0.,24.0,0.,24.0,0.,24.0,0.,24.0
1981-08-28 22:59:44.570 ,2,0,0.,24.0,0.,24.0,0.,24.0,0.,24.0
1981-08-28 23:00:08.570 ,3,1,0.,24.0,0.,24.0,0.,24.0,0.,24.0
1981-08-28 23:00:32.570 ,3,0,0.,24.0,0.,24.0,0.,24.0,0.,24.0
1981-08-28 23:00:56.570 ,4,1,0.,24.0,0.,24.0,0.,24.0,0.,24.0
1981-08-28 23:01:20.570 ,4,0,1.,24.0,0.,24.0,0.,24.0,0.,24.0
1981-08-28 23:01:44.570 ,5,1,0.,24.0,0.,24.0,0.,24.0,0.,24.0
1981-08-28 23:02:08.570 ,5,0,0.,24.0,0.,24.0,0.,24.0,0.,24.0
1981-08-28 23:02:32.570 ,6,1,0.,24.0,0.,24.0,0.,24.0,0.,24.0
1981-08-28 23:02:56.570 ,6,0,0.,24.0,0.,24.0,0.,24.0,0.,24.0
1981-08-28 23:03:20.570 ,7,1,0.,24.0,0.,24.0,0.,24.0,0.,24.0
1981-08-28 23:03:44.570 ,7,0,0.,24.0,0.,24.0,0.,24.0,0.,24.0
1981-08-28 23:04:08.570 ,7,1,0.,24.0,0.,24.0,0.,24.0,0.,24.0
1981-08-28 23:04:32.570 ,6,1,0.,24.0,0.,24.0,0.,24.0,0.,24.0
1981-08-28 23:04:56.570 ,5,1,0.,24.0,0.,24.0,0.,24.0,0.,24.0
1981-08-28 23:05:20.570 ,4,1,0.,24.0,0.,24.0,0.,24.0,0.,24.0
1981-08-28 23:05:44.570 ,3,1,0.,24.0,0.,24.0,0.,24.0,0.,24.0
1981-08-28 23:06:08.570 ,2,1,0.,24.0,0.,24.0,0.,24.0,0.,24.0
1981-08-28 23:06:32.570 ,1,1,1.,24.0,0.,24.0,0.,24.0,0.,24.0
1981-08-28 23:06:56.570 ,0,1,0.,24.0,0.,24.0,0.,24.0,0.,24.0
1981-08-28 23:07:20.570 ,0,1,0.,24.0,0.,24.0,0.,24.0,0.,24.0
1981-08-28 23:07:44.570 ,1,1,0.,24.0,0.,24.0,0.,24.0,0.,24.0
1981-08-28 23:08:08.570 ,2,1,0.,24.0,0.,24.0,0.,24.0,0.,24.0
1981-08-28 23:08:32.570 ,3,1,0.,24.0,0.,24.0,0.,24.0,0.,24.0
1981-08-28 23:08:56.570 ,4,1,0.,24.0,0.,24.0,0.,24.0,0.,24.0
1981-08-28 23:09:20.570 ,5,1,0.,24.0,0.,24.0,0.,24.0,0.,24.0
1981-08-28 23:09:44.570 ,6,1,0.,24.0,0.,24.0,0.,24.0,0.,24.0
1981-08-28 23:10:08.570 ,7,1,0.,24.0,0.,24.0,0.,24.0,0.,24.0
1981-08-28 23:10:32.570 ,7,1,0.,24.0,0.,24.0,0.,24.0,0.,24.0
1981-08-28 23:10:56.570 ,7,0,0.,24.0,0.,24.0,0.,24.0,0.,24.0
1981-08-28 23:11:20.570 ,6,1,0.,24.0,0.,24.0,0.,24.0,0.,24.0
1981-08-28 23:11:44.570 ,6,0,0.,24.0,0.,24.0,0.,24.0,0.,24.0
1981-08-28 23:12:08.570 ,5,1,0.,24.0,0.,24.0,0.,24.0,0.,24.0
1981-08-28 23:12:32.570 ,5,0,0.,24.0,0.,24.0,0.,24.0,0.,24.0
1981-08-28 23:12:56.570 ,4,1,0.,24.0,0.,24.0,0.,24.0,0.,24.0
1981-08-28 23:13:20.570 ,4,0,0.,24.0,0.,24.0,0.,24.0,0.,24.0
1981-08-28 23:13:44.570 ,0,0,,0,,0,,0,,0
1981-08-28 23:14:08.570 ,3,0,,0,,0,,0,,0
1981-08-28 23:14:32.570 ,2,1,0.,24.0,0.,24.0,8192.,24.0,0.,24.0
1981-08-28 23:14:56.570 ,2,0,0.,24.0,0.,24.0,0.,24.0,0.,24.0
1981-08-28 23:15:20.570 ,0,0,0.,24.0,0.,24.0,0.,24.0,0.,24.0
1981-08-28 23:15:44.570 ,0,0,0.,24.0,0.,24.0,0.,24.0,0.,24.0
1981-08-28 23:16:08.570 ,0,0,0.,24.0,0.,24.0,0.,24.0,0.,24.0
1981-08-28 23:16:32.570 ,0,0,,0,,0,,0,,0
1981-08-28 23:16:56.570 ,0,1,0.,24.0,0.,24.0,0.,24.0,0.,24.0
1981-08-28 23:17:20.570 ,0,0,0.,24.0,0.,24.0,0.,24.0,0.,24.0
1981-08-28 23:17:44.570 ,0,0,0.,24.0,0.,24.0,0.,24.0,0.,24.0
1981-08-28 23:18:08.570 ,0,0,0.,24.0,0.,24.0,0.,24.0,0.,24.0
1981-08-28 23:18:32.570 ,2,1,0.,24.0,0.,24.0,0.,24.0,0.,24.0
1981-08-28 23:18:56.570 ,2,0,0.,24.0,0.,24.0,0.,24.0,0.,24.0
1981-08-28 23:19:20.570 ,3,1,0.,24.0,0.,24.0,0.,24.0,0.,24.0
1981-08-28 23:19:44.570 ,3,0,0.,24.0,0.,24.0,0.,24.0,0.,24.0
1981-08-28 23:20:08.570 ,4,1,0.,24.0,0.,24.0,0.,24.0,0.,24.0
1981-08-28 23:20:32.570 ,4,0,0.,24.0,0.,24.0,0.,24.0,0.,24.0
1981-08-28 23:20:56.570 ,5,1,0.,24.0,0.,24.0,0.,24.0,0.,24.0
1981-08-28 23:21:20.570 ,5,0,0.,24.0,0.,24.0,0.,24.0,0.,24.0
1981-08-28 23:21:44.570 ,6,1,0.,24.0,0.,24.0,0.,24.0,0.,24.0
1981-08-28 23:22:08.570 ,6,0,1.,24.0,0.,24.0,0.,24.0,0.,24.0
1981-08-28 23:22:32.570 ,7,1,0.,24.0,0.,24.0,0.,24.0,0.,24.0
1981-08-28 23:22:56.570 ,7,0,0.,24.0,0.,24.0,0.,24.0,0.,24.0
1981-08-28 23:23:20.570 ,7,1,0.,24.0,0.,24.0,0.,24.0,0.,24.0
1981-08-28 23:23:44.570 ,6,1,0.,24.0,0.,24.0,0.,24.0,0.,24.0
1981-08-28 23:24:08.570 ,5,1,0.,24.0,0.,24.0,0.,24.0,0.,24.0
1981-08-28 23:24:32.570 ,4,1,1.,24.0,0.,24.0,0.,24.0,0.,24.0
1981-08-28 23:24:56.570 ,3,1,0.,24.0,0.,24.0,0.,24.0,0.,24.0
1981-08-28 23:25:20.570 ,2,1,0.,24.0,0.,24.0,0.,24.0,0.,24.0
1981-08-28 23:25:44.570 ,1,1,0.,24.0,0.,24.0,0.,24.0,0.,24.0
1981-08-28 23:26:08.570 ,0,1,0.,24.0,0.,24.0,0.,24.0,0.,24.0
1981-08-28 23:26:32.570 ,0,1,0.,24.0,0.,24.0,0.,24.0,0.,24.0
1981-08-28 23:26:56.570 ,1,1,0.,24.0,0.,24.0,0.,24.0,0.,24.0
1981-08-28 23:27:20.570 ,2,1,0.,24.0,0.,24.0,0.,24.0,0.,24.0
1981-08-28 23:27:44.570 ,3,1,0.,24.0,0.,24.0,0.,24.0,0.,24.0
1981-08-28 23:28:08.570 ,4,1,0.,24.0,0.,24.0,0.,24.0,0.,24.0
1981-08-28 23:28:32.570 ,5,1,0.,24.0,0.,24.0,0.,24.0,0.,24.0
1981-08-28 23:28:56.570 ,6,1,0.,24.0,0.,24.0,0.,24.0,0.,24.0
1981-08-28 23:29:20.570 ,7,1,0.,24.0,0.,24.0,0.,24.0,0.,24.0
1981-08-28 23:29:44.570 ,7,1,0.,24.0,0.,24.0,0.,24.0,0.,24.0
1981-08-28 23:30:08.570 ,7,0,0.,24.0,0.,24.0,0.,24.0,0.,24.0
1981-08-28 23:30:32.570 ,6,1,0.,24.0,0.,24.0,0.,24.0,0.,24.0
1981-08-28 23:30:56.570 ,6,0,0.,24.0,0.,24.0,0.,24.0,0.,24.0
1981-08-28 23:31:20.570 ,5,1,0.,24.0,0.,24.0,0.,24.0,0.,24.0
1981-08-28 23:31:44.570 ,5,0,0.,24.0,0.,24.0,0.,24.0,0.,24.0
1981-08-28 23:32:08.570 ,4,1,0.,24.0,0.,24.0,0.,24.0,0.,24.0
1981-08-28 23:32:32.570 ,4,0,0.,24.0,0.,24.0,0.,24.0,0.,24.0
1981-08-28 23:32:56.570 ,3,1,0.,24.0,0.,24.0,0.,24.0,0.,24.0
1981-08-28 23:33:20.570 ,3,0,0.,24.0,0.,24.0,0.,24.0,0.,24.0
1981-08-28 23:33:44.570 ,2,1,0.,24.0,0.,24.0,0.,24.0,0.,24.0
1981-08-28 23:34:08.570 ,2,0,0.,24.0,0.,24.0,0.,24.0,0.,24.0
1981-08-28 23:34:32.570 ,1,1,0.,24.0,0.,24.0,0.,24.0,0.,24.0
1981-08-28 23:34:56.570 ,1,0,0.,24.0,0.,24.0,0.,24.0,0.,24.0
1981-08-28 23:35:20.570 ,0,1,0.,24.0,0.,24.0,0.,24.0,0.,24.0
1981-08-28 23:35:44.570 ,0,0,0.,24.0,0.,24.0,0.,24.0,0.,24.0
1981-08-28 23:36:08.570 ,0,1,0.,24.0,0.,24.0,0.,24.0,0.,24.0
1981-08-28 23:36:32.570 ,0,0,0.,24.0,0.,24.0,0.,24.0,0.,24.0
1981-08-28 23:36:56.570 ,1,1,0.,24.0,0.,24.0,0.,24.0,0.,24.0